| time (UTC) | temp C | wind direction | speed KPH | gust KPH | rain 1hr cm | rain 24hr cm | rain mn cm | humidity % | barometer mb |
| 20260507113153 | 11 | 251 | 0.0 | 3.2 | 0.00 | 0.00 | 0.00 | 85 | 1020.7 |
| 20260507112652 | 11 | 251 | 0.0 | 3.2 | 0.00 | 0.00 | 0.00 | 85 | 1020.8 |
| 20260507112150 | 11 | 238 | 0.0 | 3.2 | 0.00 | 0.00 | 0.00 | 85 | 1020.8 |
| 20260507111651 | 11 | 237 | 0.0 | 4.8 | 0.00 | 0.00 | 0.00 | 85 | 1020.8 |
| 20260507111150 | 11 | 237 | 1.6 | 4.8 | 0.00 | 0.00 | 0.00 | 85 | 1020.8 |
| 20260507110650 | 11 | 223 | 1.6 | 4.8 | 0.00 | 0.00 | 0.00 | 85 | 1020.8 |
| 20260507110150 | 11 | 223 | 1.6 | 4.8 | 0.00 | 0.00 | 0.00 | 85 | 1020.8 |
| 20260507105654 | 11 | 277 | 1.6 | 4.8 | 0.00 | 0.00 | 0.00 | 85 | 1020.9 |
| 20260507105649 | 11 | 222 | 1.6 | 4.8 | 0.00 | 0.00 | 0.00 | 85 | 1020.9 |
| 20260507104650 | 11 | 259 | 1.6 | 4.8 | 0.00 | 0.00 | 0.00 | 85 | 1020.9 |
| 20260507104149 | 11 | 266 | 1.6 | 8.0 | 0.00 | 0.00 | 0.00 | 85 | 1020.9 |
| 20260507103654 | 11 | 250 | 0.0 | 4.8 | 0.00 | 0.00 | 0.00 | 85 | 1021.0 |
| 20260507103648 | 11 | 241 | 1.6 | 8.0 | 0.00 | 0.00 | 0.00 | 85 | 1020.9 |
| 20260507102647 | 11 | 252 | 0.0 | 4.8 | 0.00 | 0.00 | 0.00 | 85 | 1021.0 |
| 20260507102152 | 11 | 235 | 1.6 | 4.8 | 0.00 | 0.00 | 0.00 | 84 | 1021.0 |
| 20260507102147 | 11 | 252 | 1.6 | 4.8 | 0.00 | 0.00 | 0.00 | 85 | 1021.0 |
| 20260507101647 | 11 | 242 | 1.6 | 4.8 | 0.00 | 0.00 | 0.00 | 85 | 1021.0 |
| 20260507100653 | 11 | 257 | 1.6 | 4.8 | 0.00 | 0.00 | 0.00 | 84 | 1021.0 |
| 20260507100647 | 11 | 251 | 1.6 | 4.8 | 0.00 | 0.00 | 0.00 | 84 | 1021.0 |
| 20260507095648 | 11 | 252 | 1.6 | 4.8 | 0.00 | 0.00 | 0.00 | 84 | 1021.1 |
| 20260507095150 | 11 | 252 | 1.6 | 4.8 | 0.00 | 0.00 | 0.00 | 84 | 1021.2 |
| 20260507095145 | 11 | 244 | 1.6 | 4.8 | 0.00 | 0.00 | 0.00 | 84 | 1021.1 |
| 20260507094145 | 11 | 261 | 1.6 | 4.8 | 0.00 | 0.00 | 0.00 | 84 | 1021.2 |
| 20260507093645 | 11 | 257 | 0.0 | 4.8 | 0.00 | 0.00 | 0.00 | 84 | 1021.3 |
| 20260507093146 | 11 | 247 | 0.0 | 1.6 | 0.00 | 0.00 | 0.00 | 84 | 1021.3 |
| 20260507092644 | 11 | 247 | 0.0 | 3.2 | 0.00 | 0.00 | 0.00 | 84 | 1021.3 |
| 20260507092144 | 11 | 247 | 0.0 | 3.2 | 0.00 | 0.00 | 0.00 | 84 | 1021.4 |
| 20260507091644 | 11 | 245 | 1.6 | 3.2 | 0.00 | 0.00 | 0.00 | 83 | 1021.4 |
| 20260507091144 | 11 | 256 | 1.6 | 4.8 | 0.00 | 0.00 | 0.00 | 83 | 1021.4 |
| 20260507090645 | 11 | 226 | 1.6 | 6.4 | 0.00 | 0.00 | 0.00 | 83 | 1021.5 |
| 20260507090149 | 11 | 259 | 1.6 | 6.4 | 0.00 | 0.00 | 0.00 | 83 | 1021.6 |
| 20260507090144 | 11 | 248 | 1.6 | 6.4 | 0.00 | 0.00 | 0.00 | 83 | 1021.5 |
| 20260507085144 | 11 | 250 | 1.6 | 6.4 | 0.00 | 0.00 | 0.00 | 83 | 1021.5 |
| 20260507084642 | 11 | 277 | 0.0 | 4.8 | 0.00 | 0.00 | 0.00 | 83 | 1021.5 |
| 20260507084145 | 11 | 263 | 1.6 | 4.8 | 0.00 | 0.00 | 0.00 | 83 | 1021.5 |
| 20260507084141 | 11 | 270 | 1.6 | 4.8 | 0.00 | 0.00 | 0.00 | 83 | 1021.5 |
| 20260507083143 | 11 | 254 | 1.6 | 4.8 | 0.00 | 0.00 | 0.00 | 83 | 1021.5 |
| 20260507083138 | 11 | 259 | 1.6 | 4.8 | 0.00 | 0.00 | 0.00 | 83 | 1021.6 |
| 20260507082143 | 11 | 264 | 1.6 | 4.8 | 0.00 | 0.00 | 0.00 | 83 | 1021.4 |
| 20260507082139 | 11 | 250 | 1.6 | 4.8 | 0.00 | 0.00 | 0.00 | 83 | 1021.4 |
| 20260507081752 | 11 | 264 | 0.0 | 6.4 | 0.00 | 0.00 | 0.00 | 83 | 1021.4 |
| 20260507081139 | 11 | 244 | 1.6 | 6.4 | 0.00 | 0.00 | 0.00 | 83 | 1021.4 |
| 20260507080637 | 11 | 254 | 1.6 | 4.8 | 0.00 | 0.00 | 0.00 | 83 | 1021.4 |
| 20260507075636 | 11 | 260 | 1.6 | 6.4 | 0.00 | 0.00 | 0.00 | 84 | 1021.4 |
| 20260507075136 | 11 | 241 | 1.6 | 6.4 | 0.00 | 0.00 | 0.00 | 83 | 1021.4 |
| 20260507074637 | 11 | 259 | 1.6 | 6.4 | 0.00 | 0.00 | 0.00 | 83 | 1021.4 |
| 20260507074138 | 11 | 257 | 1.6 | 6.4 | 0.00 | 0.00 | 0.00 | 83 | 1021.4 |
| 20260507073637 | 11 | 247 | 1.6 | 6.4 | 0.00 | 0.00 | 0.00 | 83 | 1021.5 |
| 20260507073137 | 11 | 265 | 1.6 | 9.7 | 0.00 | 0.00 | 0.00 | 83 | 1021.4 |
| 20260507072638 | 11 | 251 | 1.6 | 9.7 | 0.00 | 0.00 | 0.00 | 83 | 1021.4 |
| 20260507072142 | 11 | 269 | 1.6 | 8.0 | 0.00 | 0.00 | 0.00 | 83 | 1021.5 |
| 20260507072137 | 11 | 214 | 1.6 | 9.7 | 0.00 | 0.00 | 0.00 | 83 | 1021.5 |
| 20260507071142 | 11 | 232 | 1.6 | 8.0 | 0.00 | 0.00 | 0.00 | 83 | 1021.4 |
| 20260507071138 | 11 | 254 | 1.6 | 8.0 | 0.00 | 0.00 | 0.00 | 83 | 1021.4 |
| 20260507070137 | 11 | 213 | 1.6 | 6.4 | 0.00 | 0.00 | 0.00 | 83 | 1021.5 |
| 20260507065639 | 11 | 276 | 1.6 | 6.4 | 0.00 | 0.00 | 0.00 | 83 | 1021.5 |
| 20260507065142 | 11 | 273 | 3.2 | 9.7 | 0.00 | 0.00 | 0.00 | 83 | 1021.4 |
| 20260507065137 | 11 | 226 | 1.6 | 8.0 | 0.00 | 0.00 | 0.00 | 83 | 1021.4 |
| 20260507064139 | 11 | 257 | 3.2 | 9.7 | 0.00 | 0.00 | 0.00 | 83 | 1021.4 |
| 20260507063637 | 11 | 232 | 3.2 | 8.0 | 0.00 | 0.00 | 0.00 | 83 | 1021.4 |
| 20260507063138 | 11 | 247 | 3.2 | 12.9 | 0.00 | 0.00 | 0.00 | 83 | 1021.5 |
| 20260507062637 | 11 | 262 | 3.2 | 12.9 | 0.00 | 0.00 | 0.00 | 83 | 1021.5 |
| 20260507062138 | 11 | 240 | 1.6 | 6.4 | 0.00 | 0.00 | 0.00 | 83 | 1021.5 |
| 20260507061635 | 11 | 259 | 1.6 | 9.7 | 0.00 | 0.00 | 0.00 | 83 | 1021.5 |
| 20260507061135 | 11 | 219 | 1.6 | 9.7 | 0.00 | 0.00 | 0.00 | 83 | 1021.5 |
| 20260507060636 | 11 | 250 | 1.6 | 8.0 | 0.00 | 0.00 | 0.00 | 83 | 1021.5 |
| 20260507060133 | 11 | 250 | 3.2 | 9.7 | 0.00 | 0.00 | 0.00 | 83 | 1021.5 |
| 20260507055635 | 11 | 284 | 3.2 | 9.7 | 0.00 | 0.00 | 0.00 | 83 | 1021.6 |
| 20260507055132 | 11 | 275 | 1.6 | 9.7 | 0.00 | 0.00 | 0.00 | 83 | 1021.5 |
| 20260507054635 | 11 | 270 | 3.2 | 6.4 | 0.00 | 0.00 | 0.00 | 83 | 1021.5 |
| 20260507054133 | 11 | 265 | 3.2 | 9.7 | 0.00 | 0.00 | 0.00 | 83 | 1021.5 |
| 20260507053638 | 11 | 248 | 3.2 | 8.0 | 0.00 | 0.00 | 0.00 | 83 | 1021.4 |
| 20260507053634 | 11 | 201 | 3.2 | 9.7 | 0.00 | 0.00 | 0.00 | 83 | 1021.5 |
| 20260507052633 | 11 | 286 | 3.2 | 14.5 | 0.00 | 0.00 | 0.00 | 84 | 1021.4 |
| 20260507052131 | 11 | 221 | 3.2 | 14.5 | 0.00 | 0.00 | 0.00 | 84 | 1021.5 |
| 20260507051630 | 11 | 258 | 3.2 | 11.3 | 0.00 | 0.00 | 0.00 | 84 | 1021.5 |
| 20260507051131 | 11 | 236 | 1.6 | 11.3 | 0.00 | 0.00 | 0.00 | 84 | 1021.5 |
| 20260507050630 | 11 | 259 | 1.6 | 9.7 | 0.00 | 0.00 | 0.00 | 84 | 1021.5 |
| 20260507050136 | 11 | 266 | 3.2 | 11.3 | 0.00 | 0.00 | 0.00 | 83 | 1021.5 |
| 20260507050130 | 11 | 250 | 1.6 | 9.7 | 0.00 | 0.00 | 0.00 | 84 | 1021.5 |
| 20260507045131 | 11 | 268 | 3.2 | 11.3 | 0.00 | 0.00 | 0.00 | 83 | 1021.5 |
| 20260507044631 | 11 | 260 | 3.2 | 11.3 | 0.00 | 0.00 | 0.00 | 83 | 1021.5 |
| 20260507044130 | 11 | 252 | 3.2 | 11.3 | 0.00 | 0.00 | 0.00 | 83 | 1021.5 |
| 20260507043629 | 11 | 253 | 3.2 | 11.3 | 0.00 | 0.00 | 0.00 | 83 | 1021.4 |
| 20260507043134 | 11 | 245 | 4.8 | 16.1 | 0.00 | 0.00 | 0.00 | 83 | 1021.4 |
| 20260507043129 | 11 | 246 | 4.8 | 16.1 | 0.00 | 0.00 | 0.00 | 83 | 1021.4 |
| 20260507042130 | 11 | 252 | 3.2 | 11.3 | 0.00 | 0.00 | 0.00 | 83 | 1021.4 |
| 20260507041630 | 11 | 238 | 3.2 | 9.7 | 0.00 | 0.00 | 0.00 | 83 | 1021.3 |
| 20260507041127 | 11 | 279 | 3.2 | 14.5 | 0.00 | 0.00 | 0.00 | 83 | 1021.4 |
| 20260507040631 | 11 | 234 | 3.2 | 12.9 | 0.00 | 0.00 | 0.00 | 83 | 1021.2 |
| 20260507040627 | 11 | 271 | 3.2 | 14.5 | 0.00 | 0.00 | 0.00 | 83 | 1021.3 |
| 20260507035627 | 11 | 252 | 3.2 | 12.9 | 0.00 | 0.00 | 0.00 | 83 | 1021.2 |
| 20260507035126 | 11 | 293 | 3.2 | 19.3 | 0.00 | 0.00 | 0.00 | 83 | 1021.1 |
| 20260507034625 | 11 | 236 | 3.2 | 19.3 | 0.00 | 0.00 | 0.00 | 83 | 1021.0 |
| 20260507034125 | 11 | 250 | 4.8 | 11.3 | 0.00 | 0.00 | 0.00 | 82 | 1021.0 |
| 20260507033625 | 11 | 223 | 4.8 | 12.9 | 0.00 | 0.00 | 0.00 | 82 | 1020.9 |
| 20260507033124 | 11 | 261 | 4.8 | 12.9 | 0.00 | 0.00 | 0.00 | 82 | 1020.9 |
| 20260507032623 | 11 | 294 | 3.2 | 12.9 | 0.00 | 0.00 | 0.00 | 82 | 1020.9 |
| 20260507032120 | 11 | 209 | 4.8 | 14.5 | 0.00 | 0.00 | 0.00 | 81 | 1020.8 |
| 20260507031622 | 11 | 227 | 4.8 | 14.5 | 0.00 | 0.00 | 0.00 | 81 | 1020.9 |
| 20260507031121 | 12 | 257 | 4.8 | 14.5 | 0.00 | 0.00 | 0.00 | 81 | 1020.9 |
| 20260507030621 | 12 | 215 | 4.8 | 14.5 | 0.00 | 0.00 | 0.00 | 81 | 1020.8 |
| 20260507030120 | 12 | 239 | 4.8 | 16.1 | 0.00 | 0.00 | 0.00 | 80 | 1020.8 |
| 20260507025620 | 12 | 231 | 4.8 | 16.1 | 0.00 | 0.00 | 0.00 | 80 | 1020.8 |
| 20260507025121 | 12 | 257 | 4.8 | 16.1 | 0.00 | 0.00 | 0.00 | 80 | 1020.8 |
| 20260507024620 | 12 | 268 | 4.8 | 16.1 | 0.00 | 0.00 | 0.00 | 80 | 1020.8 |
| 20260507024120 | 12 | 300 | 3.2 | 11.3 | 0.00 | 0.00 | 0.00 | 79 | 1020.7 |
| 20260507023620 | 12 | 243 | 4.8 | 14.5 | 0.00 | 0.00 | 0.00 | 79 | 1020.6 |
| 20260507023122 | 12 | 305 | 6.4 | 19.3 | 0.00 | 0.00 | 0.00 | 78 | 1020.6 |
| 20260507022620 | 13 | 249 | 4.8 | 19.3 | 0.00 | 0.00 | 0.00 | 78 | 1020.6 |
| 20260507022120 | 13 | 233 | 4.8 | 16.1 | 0.00 | 0.00 | 0.00 | 78 | 1020.6 |
| 20260507021620 | 13 | 243 | 6.4 | 16.1 | 0.00 | 0.00 | 0.00 | 77 | 1020.7 |
| 20260507021121 | 13 | 299 | 6.4 | 17.7 | 0.00 | 0.00 | 0.00 | 77 | 1020.7 |
| 20260507020621 | 13 | 300 | 6.4 | 17.7 | 0.00 | 0.00 | 0.00 | 76 | 1020.6 |
| 20260507020121 | 13 | 248 | 6.4 | 17.7 | 0.00 | 0.00 | 0.00 | 76 | 1020.7 |
| 20260507015621 | 13 | 284 | 6.4 | 17.7 | 0.00 | 0.00 | 0.00 | 75 | 1020.7 |
| 20260507015121 | 14 | 319 | 6.4 | 16.1 | 0.00 | 0.00 | 0.00 | 75 | 1020.7 |
| 20260507014621 | 14 | 314 | 6.4 | 16.1 | 0.00 | 0.00 | 0.00 | 75 | 1020.7 |
| 20260507014120 | 14 | 226 | 6.4 | 16.1 | 0.00 | 0.00 | 0.00 | 75 | 1020.7 |
| 20260507013621 | 14 | 333 | 6.4 | 19.3 | 0.00 | 0.00 | 0.00 | 74 | 1020.7 |
| 20260507013121 | 14 | 238 | 6.4 | 19.3 | 0.00 | 0.00 | 0.00 | 74 | 1020.7 |
| 20260507012620 | 14 | 338 | 8.0 | 16.1 | 0.00 | 0.00 | 0.00 | 74 | 1020.7 |
| 20260507012125 | 15 | 261 | 8.0 | 22.5 | 0.00 | 0.00 | 0.00 | 74 | 1020.8 |
| 20260507012120 | 14 | 219 | 8.0 | 22.5 | 0.00 | 0.00 | 0.00 | 74 | 1020.8 |
| 20260507011121 | 15 | 278 | 8.0 | 17.7 | 0.00 | 0.00 | 0.00 | 74 | 1020.8 |
| 20260507010621 | 15 | 304 | 8.0 | 19.3 | 0.00 | 0.00 | 0.00 | 73 | 1020.8 |
| 20260507010121 | 15 | 284 | 8.0 | 19.3 | 0.00 | 0.00 | 0.00 | 72 | 1020.9 |
| 20260507005626 | 15 | 286 | 6.4 | 16.1 | 0.00 | 0.00 | 0.00 | 72 | 1020.7 |
| 20260507005622 | 15 | 265 | 8.0 | 17.7 | 0.00 | 0.00 | 0.00 | 73 | 1020.8 |
| 20260507004620 | 15 | 229 | 6.4 | 16.1 | 0.00 | 0.00 | 0.00 | 72 | 1020.7 |
| 20260507004120 | 15 | 287 | 6.4 | 22.5 | 0.00 | 0.00 | 0.00 | 74 | 1020.7 |
| 20260507003620 | 15 | 245 | 6.4 | 22.5 | 0.00 | 0.00 | 0.00 | 71 | 1020.7 |
| 20260507003126 | 16 | 243 | 8.0 | 20.9 | 0.00 | 0.00 | 0.00 | 71 | 1020.6 |
| 20260507003122 | 15 | 236 | 8.0 | 19.3 | 0.00 | 0.00 | 0.00 | 71 | 1020.7 |
| 20260507002122 | 16 | 257 | 8.0 | 20.9 | 0.00 | 0.00 | 0.00 | 71 | 1020.7 |
| 20260507001620 | 16 | 298 | 9.7 | 24.1 | 0.00 | 0.00 | 0.00 | 70 | 1020.7 |
| 20260507001120 | 16 | 269 | 8.0 | 24.1 | 0.00 | 0.00 | 0.00 | 70 | 1020.7 |
| 20260507000623 | 16 | 263 | 8.0 | 24.1 | 0.00 | 0.00 | 0.00 | 70 | 1020.7 |
| 20260507000617 | 16 | 254 | 8.0 | 24.1 | 0.00 | 0.00 | 0.00 | 70 | 1020.6 |
| 20260506235616 | 16 | 280 | 8.0 | 22.5 | 0.00 | 0.00 | 0.00 | 71 | 1020.6 |
| 20260506235120 | 16 | 235 | 8.0 | 22.5 | 0.00 | 0.00 | 0.00 | 69 | 1020.5 |
| 20260506235116 | 16 | 294 | 8.0 | 22.5 | 0.00 | 0.00 | 0.00 | 70 | 1020.5 |
| 20260506234117 | 16 | 319 | 8.0 | 19.3 | 0.00 | 0.00 | 0.00 | 72 | 1020.6 |
| 20260506233617 | 16 | 259 | 8.0 | 17.7 | 0.00 | 0.00 | 0.00 | 70 | 1020.6 |
| 20260506233113 | 16 | 262 | 8.0 | 20.9 | 0.00 | 0.00 | 0.00 | 69 | 1020.6 |
| 20260506232619 | 17 | 307 | 4.8 | 25.7 | 0.00 | 0.00 | 0.00 | 70 | 1020.6 |
| 20260506232614 | 17 | 268 | 6.4 | 20.9 | 0.00 | 0.00 | 0.00 | 69 | 1020.6 |
| 20260506232227 | 17 | 272 | 8.0 | 25.7 | 0.00 | 0.00 | 0.00 | 71 | 1020.6 |
| 20260506231115 | 16 | 229 | 11.3 | 22.5 | 0.00 | 0.00 | 0.00 | 70 | 1020.6 |
| 20260506230614 | 17 | 222 | 9.7 | 22.5 | 0.00 | 0.00 | 0.00 | 68 | 1020.6 |
| 20260506230117 | 17 | 253 | 6.4 | 17.7 | 0.00 | 0.00 | 0.00 | 68 | 1020.7 |
| 20260506230112 | 17 | 167 | 8.0 | 22.5 | 0.00 | 0.00 | 0.00 | 69 | 1020.7 |
| 20260506225112 | 17 | 194 | 6.4 | 16.1 | 0.00 | 0.00 | 0.00 | 68 | 1020.7 |
| 20260506224612 | 17 | 238 | 6.4 | 16.1 | 0.00 | 0.00 | 0.00 | 67 | 1020.7 |
| 20260506224110 | 17 | 224 | 6.4 | 20.9 | 0.00 | 0.00 | 0.00 | 68 | 1020.6 |
| 20260506223611 | 17 | 275 | 8.0 | 22.5 | 0.00 | 0.00 | 0.00 | 72 | 1020.6 |
| 20260506223111 | 17 | 232 | 8.0 | 22.5 | 0.00 | 0.00 | 0.00 | 69 | 1020.7 |
| 20260506222611 | 17 | 221 | 8.0 | 20.9 | 0.00 | 0.00 | 0.00 | 68 | 1020.6 |
| 20260506222110 | 17 | 252 | 8.0 | 20.9 | 0.00 | 0.00 | 0.00 | 68 | 1020.8 |
| 20260506221615 | 17 | 275 | 8.0 | 19.3 | 0.00 | 0.00 | 0.00 | 69 | 1020.7 |
| 20260506221610 | 17 | 295 | 8.0 | 20.9 | 0.00 | 0.00 | 0.00 | 70 | 1020.7 |
| 20260506221225 | 17 | 255 | 8.0 | 20.9 | 0.00 | 0.00 | 0.00 | 68 | 1020.6 |
| 20260506220110 | 17 | 258 | 9.7 | 20.9 | 0.00 | 0.00 | 0.00 | 69 | 1020.6 |
| 20260506215610 | 17 | 211 | 8.0 | 20.9 | 0.00 | 0.00 | 0.00 | 70 | 1020.5 |
| 20260506215108 | 17 | 292 | 8.0 | 20.9 | 0.00 | 0.00 | 0.00 | 70 | 1020.6 |
| 20260506214609 | 17 | 280 | 8.0 | 22.5 | 0.00 | 0.00 | 0.00 | 66 | 1020.5 |
| 20260506214109 | 18 | 219 | 8.0 | 22.5 | 0.00 | 0.00 | 0.00 | 68 | 1020.5 |
| 20260506213612 | 18 | 257 | 8.0 | 20.9 | 0.00 | 0.00 | 0.00 | 65 | 1020.6 |
| 20260506213608 | 18 | 339 | 8.0 | 17.7 | 0.00 | 0.00 | 0.00 | 68 | 1020.6 |
| 20260506213222 | 18 | 236 | 6.4 | 20.9 | 0.00 | 0.00 | 0.00 | 70 | 1020.7 |
| 20260506212113 | 18 | 299 | 8.0 | 17.7 | 0.00 | 0.00 | 0.00 | 70 | 1020.6 |
| 20260506212109 | 18 | 254 | 6.4 | 17.7 | 0.00 | 0.00 | 0.00 | 70 | 1020.7 |
| 20260506211223 | 17 | 254 | 6.4 | 16.1 | 0.00 | 0.00 | 0.00 | 71 | 1020.6 |
| 20260506211113 | 18 | 243 | 6.4 | 16.1 | 0.00 | 0.00 | 0.00 | 66 | 1020.6 |
| 20260506211109 | 18 | 284 | 8.0 | 17.7 | 0.00 | 0.00 | 0.00 | 67 | 1020.7 |
| 20260506210220 | 17 | 262 | 8.0 | 22.5 | 0.00 | 0.00 | 0.00 | 69 | 1020.7 |
| 20260506205107 | 17 | 309 | 11.3 | 25.7 | 0.00 | 0.00 | 0.00 | 67 | 1020.7 |
| 20260506204606 | 17 | 190 | 8.0 | 25.7 | 0.00 | 0.00 | 0.00 | 70 | 1020.7 |
| 20260506204106 | 17 | 227 | 6.4 | 19.3 | 0.00 | 0.00 | 0.00 | 69 | 1020.7 |
| 20260506203606 | 17 | 282 | 9.7 | 19.3 | 0.00 | 0.00 | 0.00 | 73 | 1020.7 |
| 20260506203106 | 17 | 215 | 8.0 | 20.9 | 0.00 | 0.00 | 0.00 | 71 | 1020.7 |
| 20260506202606 | 17 | 236 | 9.7 | 20.9 | 0.00 | 0.00 | 0.00 | 68 | 1020.7 |
| 20260506202105 | 17 | 227 | 8.0 | 19.3 | 0.00 | 0.00 | 0.00 | 70 | 1020.7 |
| 20260506201605 | 17 | 224 | 6.4 | 19.3 | 0.00 | 0.00 | 0.00 | 70 | 1020.7 |
| 20260506201110 | 17 | 244 | 6.4 | 19.3 | 0.00 | 0.00 | 0.00 | 71 | 1020.9 |
| 20260506201106 | 17 | 229 | 6.4 | 19.3 | 0.00 | 0.00 | 0.00 | 70 | 1020.8 |
| 20260506195602 | 17 | 263 | 6.4 | 14.5 | 0.00 | 0.00 | 0.00 | 71 | 1021.0 |
| 20260506195102 | 17 | 144 | 6.4 | 14.5 | 0.00 | 0.00 | 0.00 | 74 | 1020.9 |
| 20260506194602 | 17 | 259 | 6.4 | 14.5 | 0.00 | 0.00 | 0.00 | 72 | 1021.0 |
| 20260506194101 | 17 | 232 | 6.4 | 17.7 | 0.00 | 0.00 | 0.00 | 73 | 1021.0 |
| 20260506193607 | 17 | 302 | 6.4 | 19.3 | 0.00 | 0.00 | 0.00 | 71 | 1020.9 |
| 20260506193602 | 17 | 205 | 6.4 | 19.3 | 0.00 | 0.00 | 0.00 | 70 | 1020.9 |
| 20260506192603 | 17 | 299 | 8.0 | 20.9 | 0.00 | 0.00 | 0.00 | 71 | 1021.0 |
| 20260506192107 | 17 | 219 | 6.4 | 16.1 | 0.00 | 0.00 | 0.00 | 73 | 1021.0 |
| 20260506192103 | 17 | 292 | 8.0 | 20.9 | 0.00 | 0.00 | 0.00 | 73 | 1021.0 |
| 20260506191102 | 17 | 195 | 9.7 | 24.1 | 0.00 | 0.00 | 0.00 | 73 | 1020.9 |
| 20260506190607 | 17 | 213 | 4.8 | 14.5 | 0.00 | 0.00 | 0.00 | 75 | 1020.9 |
| 20260506190601 | 17 | 222 | 8.0 | 24.1 | 0.00 | 0.00 | 0.00 | 71 | 1020.9 |
| 20260506190215 | 17 | 236 | 4.8 | 16.1 | 0.00 | 0.00 | 0.00 | 72 | 1020.9 |
| 20260506185603 | 17 | 238 | 4.8 | 16.1 | 0.00 | 0.00 | 0.00 | 72 | 1020.8 |
| 20260506184601 | 16 | 304 | 4.8 | 11.3 | 0.00 | 0.00 | 0.00 | 71 | 1020.8 |
| 20260506184059 | 16 | 288 | 4.8 | 11.3 | 0.00 | 0.00 | 0.00 | 74 | 1020.8 |
| 20260506183559 | 16 | 201 | 3.2 | 11.3 | 0.00 | 0.00 | 0.00 | 73 | 1020.8 |
| 20260506183058 | 16 | 233 | 3.2 | 11.3 | 0.00 | 0.00 | 0.00 | 73 | 1020.8 |
| 20260506182556 | 16 | 267 | 3.2 | 11.3 | 0.00 | 0.00 | 0.00 | 75 | 1020.8 |
| 20260506182056 | 16 | 233 | 3.2 | 8.0 | 0.00 | 0.00 | 0.00 | 75 | 1020.9 |
| 20260506181557 | 16 | 259 | 4.8 | 9.7 | 0.00 | 0.00 | 0.00 | 77 | 1020.9 |
| 20260506181056 | 16 | 259 | 3.2 | 9.7 | 0.00 | 0.00 | 0.00 | 78 | 1020.9 |
| 20260506180557 | 15 | 230 | 3.2 | 9.7 | 0.00 | 0.00 | 0.00 | 77 | 1020.9 |
| 20260506180055 | 15 | 236 | 3.2 | 11.3 | 0.00 | 0.00 | 0.00 | 77 | 1021.0 |
| 20260506175554 | 15 | 278 | 3.2 | 11.3 | 0.00 | 0.00 | 0.00 | 78 | 1021.1 |
| 20260506175052 | 15 | 276 | 3.2 | 9.7 | 0.00 | 0.00 | 0.00 | 77 | 1021.0 |
| 20260506174551 | 15 | 287 | 3.2 | 9.7 | 0.00 | 0.00 | 0.00 | 77 | 1020.9 |
| 20260506174052 | 15 | 264 | 1.6 | 6.4 | 0.00 | 0.00 | 0.00 | 79 | 1020.9 |
| 20260506173555 | 15 | 252 | 1.6 | 3.2 | 0.00 | 0.00 | 0.00 | 78 | 1020.8 |
| 20260506173550 | 15 | 269 | 1.6 | 6.4 | 0.00 | 0.00 | 0.00 | 78 | 1020.9 |
| 20260506172553 | 14 | 255 | 1.6 | 6.4 | 0.00 | 0.00 | 0.00 | 80 | 1020.8 |
| 20260506172548 | 14 | 250 | 1.6 | 6.4 | 0.00 | 0.00 | 0.00 | 78 | 1020.8 |
| 20260506171549 | 14 | 181 | 1.6 | 6.4 | 0.00 | 0.00 | 0.00 | 79 | 1020.6 |
| 20260506171049 | 14 | 180 | 3.2 | 8.0 | 0.00 | 0.00 | 0.00 | 78 | 1020.7 |
| 20260506170546 | 14 | 225 | 1.6 | 8.0 | 0.00 | 0.00 | 0.00 | 79 | 1020.8 |
| 20260506170045 | 13 | 226 | 1.6 | 6.4 | 0.00 | 0.00 | 0.00 | 80 | 1020.8 |
| 20260506165547 | 13 | 230 | 1.6 | 8.0 | 0.00 | 0.00 | 0.00 | 81 | 1021.0 |
| 20260506165045 | 13 | 292 | 1.6 | 8.0 | 0.00 | 0.00 | 0.00 | 81 | 1021.0 |
| 20260506164546 | 13 | 213 | 1.6 | 4.8 | 0.00 | 0.00 | 0.00 | 80 | 1021.0 |
| 20260506164047 | 13 | 275 | 1.6 | 4.8 | 0.00 | 0.00 | 0.00 | 81 | 1021.0 |
| 20260506163547 | 13 | 270 | 1.6 | 3.2 | 0.00 | 0.00 | 0.00 | 81 | 1020.9 |
| 20260506163046 | 13 | 234 | 1.6 | 3.2 | 0.00 | 0.00 | 0.00 | 81 | 1020.9 |
| 20260506162547 | 13 | 250 | 1.6 | 3.2 | 0.00 | 0.00 | 0.00 | 81 | 1020.9 |
| 20260506162046 | 13 | 217 | 1.6 | 6.4 | 0.00 | 0.00 | 0.00 | 82 | 1021.0 |
| 20260506161546 | 13 | 215 | 1.6 | 6.4 | 0.00 | 0.00 | 0.00 | 83 | 1020.9 |
| 20260506161046 | 13 | 277 | 1.6 | 4.8 | 0.00 | 0.00 | 0.00 | 83 | 1021.0 |
| 20260506160546 | 12 | 301 | 1.6 | 4.8 | 0.00 | 0.00 | 0.00 | 82 | 1020.9 |
| 20260506160045 | 12 | 250 | 1.6 | 4.8 | 0.00 | 0.00 | 0.00 | 83 | 1020.9 |
| 20260506155546 | 12 | 260 | 1.6 | 4.8 | 0.00 | 0.00 | 0.00 | 83 | 1020.8 |
| 20260506155047 | 12 | 248 | 1.6 | 4.8 | 0.00 | 0.00 | 0.00 | 83 | 1020.8 |
| 20260506154543 | 12 | 244 | 1.6 | 8.0 | 0.00 | 0.00 | 0.00 | 84 | 1020.7 |
| 20260506154044 | 12 | 215 | 3.2 | 8.0 | 0.00 | 0.00 | 0.00 | 82 | 1020.6 |
| 20260506153543 | 12 | 186 | 3.2 | 8.0 | 0.00 | 0.00 | 0.00 | 83 | 1020.6 |
| 20260506153044 | 12 | 213 | 3.2 | 8.0 | 0.00 | 0.00 | 0.00 | 83 | 1020.5 |
| 20260506152541 | 12 | 236 | 4.8 | 12.9 | 0.00 | 0.00 | 0.00 | 83 | 1020.3 |
| 20260506152039 | 12 | 222 | 4.8 | 12.9 | 0.00 | 0.00 | 0.00 | 83 | 1020.6 |
| 20260506151539 | 12 | 229 | 4.8 | 12.9 | 0.00 | 0.00 | 0.00 | 84 | 1020.7 |
| 20260506151035 | 12 | 199 | 4.8 | 12.9 | 0.00 | 0.00 | 0.00 | 83 | 1020.8 |
| 20260506150537 | 12 | 217 | 3.2 | 9.7 | 0.00 | 0.00 | 0.00 | 84 | 1020.7 |
| 20260506150036 | 11 | 248 | 3.2 | 11.3 | 0.00 | 0.00 | 0.00 | 85 | 1020.9 |
| 20260506145535 | 11 | 220 | 4.8 | 11.3 | 0.00 | 0.00 | 0.00 | 85 | 1020.9 |
| 20260506145042 | 11 | 298 | 4.8 | 16.1 | 0.00 | 0.00 | 0.00 | 86 | 1020.8 |
| 20260506145036 | 11 | 240 | 3.2 | 11.3 | 0.00 | 0.00 | 0.00 | 85 | 1020.9 |
| 20260506144537 | 11 | 252 | 3.2 | 11.3 | 0.00 | 0.00 | 0.00 | 86 | 1020.8 |
| 20260506144148 | 11 | 259 | 4.8 | 16.1 | 0.00 | 0.00 | 0.00 | 86 | 1020.9 |
| 20260506143036 | 11 | 261 | 4.8 | 14.5 | 0.00 | 0.00 | 0.00 | 87 | 1020.8 |
| 20260506143032 | 11 | 271 | 4.8 | 12.9 | 0.00 | 0.00 | 0.00 | 87 | 1020.8 |
| 20260506142031 | 11 | 265 | 4.8 | 17.7 | 0.00 | 0.00 | 0.00 | 87 | 1020.6 |
| 20260506141529 | 11 | 290 | 3.2 | 17.7 | 0.00 | 0.00 | 0.00 | 87 | 1020.5 |
| 20260506141029 | 11 | 290 | 3.2 | 6.4 | 0.00 | 0.00 | 0.00 | 88 | 1020.3 |
| 20260506140529 | 11 | 265 | 3.2 | 6.4 | 0.00 | 0.00 | 0.00 | 89 | 1020.2 |
| 20260506140025 | 10 | 254 | 3.2 | 9.7 | 0.00 | 0.00 | 0.00 | 89 | 1020.1 |
| 20260506135526 | 10 | 248 | 1.6 | 9.7 | 0.00 | 0.00 | 0.00 | 90 | 1020.1 |
| 20260506135023 | 10 | 180 | 1.6 | 6.4 | 0.00 | 0.00 | 0.00 | 91 | 1019.9 |
| 20260506134523 | 10 | 236 | 0.0 | 3.2 | 0.00 | 0.00 | 0.00 | 91 | 1020.0 |
| 20260506134023 | 10 | 233 | 0.0 | 3.2 | 0.00 | 0.00 | 0.00 | 91 | 1019.9 |
| 20260506133523 | 10 | 233 | 0.0 | 3.2 | 0.00 | 0.00 | 0.00 | 90 | 1019.9 |
| 20260506133021 | 10 | 238 | 0.0 | 3.2 | 0.00 | 0.00 | 0.00 | 90 | 1019.9 |
| 20260506132522 | 10 | 238 | 0.0 | 3.2 | 0.00 | 0.00 | 0.00 | 90 | 1019.9 |
| 20260506132021 | 10 | 236 | 0.0 | 3.2 | 0.00 | 0.00 | 0.00 | 90 | 1019.9 |
| 20260506131526 | 10 | 235 | 0.0 | 4.8 | 0.00 | 0.00 | 0.00 | 90 | 1019.8 |
| 20260506131521 | 10 | 236 | 0.0 | 4.8 | 0.00 | 0.00 | 0.00 | 90 | 1019.9 |
| 20260506130521 | 10 | 234 | 0.0 | 3.2 | 0.00 | 0.00 | 0.00 | 89 | 1019.8 |
| 20260506130021 | 10 | 234 | 0.0 | 3.2 | 0.00 | 0.00 | 0.00 | 89 | 1019.7 |
| 20260506125523 | 10 | 223 | 0.0 | 3.2 | 0.00 | 0.00 | 0.00 | 89 | 1019.7 |
| 20260506125023 | 10 | 223 | 0.0 | 4.8 | 0.00 | 0.00 | 0.00 | 89 | 1019.6 |
| 20260506124526 | 10 | 214 | 0.0 | 3.2 | 0.00 | 0.00 | 0.00 | 88 | 1019.6 |
| 20260506124522 | 10 | 223 | 0.0 | 4.8 | 0.00 | 0.00 | 0.00 | 88 | 1019.7 |
| 20260506123520 | 10 | 213 | 1.6 | 6.4 | 0.00 | 0.00 | 0.00 | 88 | 1019.5 |
| 20260506123019 | 10 | 217 | 3.2 | 8.0 | 0.00 | 0.00 | 0.00 | 87 | 1019.4 |
| 20260506122519 | 10 | 219 | 3.2 | 8.0 | 0.00 | 0.00 | 0.00 | 88 | 1019.3 |
| 20260506122019 | 10 | 205 | 3.2 | 6.4 | 0.00 | 0.00 | 0.00 | 88 | 1019.4 |
| 20260506121524 | 11 | 228 | 3.2 | 14.5 | 0.00 | 0.00 | 0.00 | 88 | 1019.5 |
| 20260506121519 | 11 | 246 | 3.2 | 9.7 | 0.00 | 0.00 | 0.00 | 87 | 1019.5 |
| 20260506120521 | 11 | 264 | 3.2 | 14.5 | 0.00 | 0.00 | 0.00 | 88 | 1019.5 |
| 20260506120020 | 11 | 241 | 3.2 | 9.7 | 0.00 | 0.00 | 0.00 | 88 | 1019.6 |
| 20260506115519 | 11 | 253 | 1.6 | 11.3 | 0.00 | 0.00 | 0.00 | 88 | 1019.6 |
| 20260506115016 | 11 | 232 | 3.2 | 11.3 | 0.00 | 0.00 | 0.00 | 88 | 1019.4 |
| 20260506114519 | 11 | 257 | 3.2 | 11.3 | 0.00 | 0.00 | 0.00 | 88 | 1019.4 |
| 20260506114017 | 11 | 242 | 3.2 | 14.5 | 0.00 | 0.00 | 0.00 | 88 | 1019.4 |